FW5771 Weather Reports


time (UTC)temp
F
wind
direction
speed
knots
gust
knots
rain 1hr
in
rain 24hr
in
rain mn
in
humidity
%
barometer
mb
20260504001545 84 123 0.9 7.0 0.00 0.00 0.00 35 1005.6
20260504000048 85 68 0.0 3.5 0.00 0.00 0.00 38 1005.9
20260503234541 85 92 1.7 5.2 0.00 0.00 0.00 35 1005.9
20260503233038 84 132 1.7 7.8 0.00 0.00 0.00 35 1006.1
20260503231536 83 127 3.5 8.7 0.00 0.00 0.00 36 1006.3
20260503230133 84 62 0.0 7.0 0.00 0.00 0.00 37 1006.5
20260503224529 83 81 0.0 7.0 0.00 0.00 0.00 37 1006.8
20260503223026 82 96 1.7 7.8 0.00 0.00 0.00 37 1007.0
20260503221525 82 105 1.7 6.1 0.00 0.00 0.00 37 1007.2
20260503220021 82 32 3.5 7.0 0.00 0.00 0.00 38 1007.4
20260503214535 81 96 1.7 7.8 0.00 0.00 0.00 39 1007.7
20260503213014 80 115 1.7 8.7 0.00 0.00 0.00 40 1007.8
20260503211512 80 71 1.7 7.0 0.00 0.00 0.00 41 1007.9
20260503210009 80 80 2.6 7.8 0.00 0.00 0.00 41 1008.1
20260503204506 79 103 1.7 7.8 0.00 0.00 0.00 42 1008.3
20260503203003 78 80 1.7 7.8 0.00 0.00 0.00 42 1008.5
20260503201602 77 76 2.6 8.7 0.00 0.00 0.00 44 1008.7
20260503200111 77 111 1.7 9.6 0.00 0.00 0.00 45 1008.9
20260503194602 76 58 1.7 7.8 0.00 0.00 0.00 47 1009.0
20260503193101 75 123 2.6 8.7 0.00 0.00 0.00 46 1009.2
20260503191554 75 76 4.3 8.7 0.00 0.00 0.00 47 1009.4
20260503190049 74 106 1.7 8.7 0.00 0.00 0.00 50 1009.6
20260503184557 73 178 3.5 8.7 0.00 0.00 0.00 50 1009.8
20260503183043 73 66 1.7 7.0 0.00 0.00 0.00 52 1010.1
20260503181547 72 138 2.6 7.0 0.00 0.00 0.00 52 1010.1
20260503180047 71 109 4.3 8.7 0.00 0.00 0.00 53 1010.2
20260503174544 71 142 4.3 7.8 0.00 0.00 0.00 53 1010.3
20260503173040 71 150 1.7 6.1 0.00 0.00 0.00 54 1010.5
20260503171526 68 145 3.5 7.0 0.00 0.00 0.00 56 1010.5
20260503130155 47 128 0.0 0.0 0.00 0.00 0.00 92 1010.6
20260503081537 53 128 0.0 0.0 0.00 0.00 0.00 86 1011.0
20260503071516 55 128 0.0 0.0 0.00 0.00 0.00 85 1011.0
20260503054516 58 128 0.0 0.0 0.00 0.00 0.00 78 1010.8
20260503053013 58 128 0.0 0.0 0.00 0.00 0.00 76 1010.8
20260503051523 60 128 0.0 0.0 0.00 0.00 0.00 73 1010.8
20260503050009 61 128 0.0 0.0 0.00 0.00 0.00 70 1010.6
20260503044508 62 128 0.0 0.0 0.00 0.00 0.00 68 1010.5
20260503043008 63 128 0.0 0.0 0.00 0.00 0.00 66 1010.3
20260503041509 64 128 0.0 0.0 0.00 0.00 0.00 64 1010.1
20260503040007 65 128 0.0 0.0 0.00 0.00 0.00 63 1009.8
20260503034506 66 128 0.0 0.0 0.00 0.00 0.00 62 1009.7
20260503033011 67 128 0.0 0.0 0.00 0.00 0.00 62 1009.5
20260503031508 68 128 0.0 1.7 0.00 0.00 0.00 59 1009.4
20260503030007 70 114 0.0 3.5 0.00 0.00 0.00 57 1009.2
20260503024504 71 129 0.0 2.6 0.00 0.00 0.00 58 1009.1
20260503023003 73 129 0.0 1.7 0.00 0.00 0.00 55 1009.0
20260503021503 74 129 0.0 2.6 0.00 0.00 0.00 54 1008.8
20260503020002 75 132 0.0 2.6 0.00 0.00 0.00 50 1008.8
20260503014501 75 161 0.0 4.3 0.00 0.00 0.00 50 1008.7
20260503013100 74 167 0.0 1.7 0.00 0.00 0.00 50 1008.8
20260503011604 74 68 0.9 3.5 0.00 0.00 0.00 51 1008.9
20260503010108 75 73 4.3 7.0 0.00 0.00 0.00 50 1008.9
20260503004555 75 89 0.9 3.5 0.00 0.00 0.00 52 1009.0
20260503003108 75 118 0.0 6.1 0.00 0.00 0.00 51 1009.1